| time (UTC) | temp F | wind direction | speed knots | gust knots | rain 1hr in | rain 24hr in | rain mn in | humidity % | barometer mb |
| 20260509185251 | 61 | 185 | 1.7 | 5.2 | 0.00 | 0.29 | 0.14 | 86 | 1009.8 |
| 20260509184236 | 60 | 195 | 1.7 | 3.5 | 0.00 | 0.29 | 0.14 | 88 | 1009.7 |
| 20260509183314 | 60 | 224 | 1.7 | 6.1 | 0.00 | 0.29 | 0.14 | 87 | 1009.9 |
| 20260509182258 | 59 | 251 | 0.9 | 1.7 | 0.00 | 0.30 | 0.14 | 89 | 1010.1 |
| 20260509181244 | 57 | 186 | 0.9 | 3.5 | 0.00 | 0.30 | 0.14 | 94 | 1009.8 |
| 20260509180228 | 56 | 182 | 0.9 | 1.7 | 0.00 | 0.30 | 0.14 | 94 | 1010.0 |
| 20260509175306 | 57 | 185 | 0.9 | 2.6 | 0.00 | 0.30 | 0.14 | 95 | 1010.1 |
| 20260509174245 | 57 | 154 | 1.7 | 2.6 | 0.00 | 0.30 | 0.14 | 95 | 1009.9 |
| 20260509173231 | 56 | 150 | 0.9 | 2.6 | 0.00 | 0.30 | 0.14 | 97 | 1010.2 |
| 20260509172337 | 56 | 170 | 0.0 | 0.9 | 0.00 | 0.30 | 0.14 | 99 | 1010.0 |
| 20260509171305 | 56 | 0.0 | 0.0 | 0.00 | 0.30 | 0.14 | 98 | 1010.2 | |
| 20260509170247 | 56 | 154 | 0.9 | 2.6 | 0.00 | 0.30 | 0.14 | 98 | 1010.6 |
| 20260509165219 | 55 | 197 | 0.9 | 2.6 | 0.00 | 0.30 | 0.14 | 100 | 1009.8 |
| 20260509164348 | 55 | 169 | 0.9 | 2.6 | 0.01 | 0.30 | 0.14 | 100 | 1010.0 |
| 20260509163252 | 54 | 154 | 0.9 | 1.7 | 0.01 | 0.30 | 0.14 | 100 | 1010.0 |
| 20260509162238 | 53 | 166 | 0.9 | 3.5 | 0.02 | 0.30 | 0.14 | 100 | 1010.3 |
| 20260509161224 | 53 | 204 | 0.9 | 3.5 | 0.05 | 0.30 | 0.14 | 100 | 1010.0 |
| 20260509160305 | 53 | 183 | 0.0 | 0.9 | 0.05 | 0.30 | 0.14 | 100 | 1010.3 |
| 20260509154229 | 52 | 177 | 0.9 | 3.5 | 0.04 | 0.29 | 0.13 | 100 | 1009.8 |
| 20260509153308 | 52 | 184 | 0.9 | 1.7 | 0.04 | 0.29 | 0.13 | 100 | 1009.8 |
| 20260509152253 | 51 | 194 | 0.0 | 1.7 | 0.03 | 0.28 | 0.12 | 100 | 1010.2 |
| 20260509151241 | 51 | 203 | 0.9 | 2.6 | 0.01 | 0.25 | 0.09 | 100 | 1010.0 |
| 20260509150221 | 51 | 169 | 0.0 | 1.7 | 0.01 | 0.25 | 0.09 | 100 | 1010.2 |
| 20260509145258 | 51 | 260 | 1.7 | 2.6 | 0.01 | 0.25 | 0.09 | 100 | 1009.7 |
| 20260509144233 | 51 | 171 | 0.9 | 1.7 | 0.01 | 0.25 | 0.09 | 100 | 1009.9 |
| 20260509143218 | 51 | 163 | 0.9 | 1.7 | 0.02 | 0.25 | 0.09 | 100 | 1010.0 |
| 20260509142307 | 51 | 156 | 0.9 | 1.7 | 0.04 | 0.25 | 0.09 | 100 | 1010.2 |
| 20260509141244 | 51 | 154 | 0.9 | 1.7 | 0.04 | 0.24 | 0.08 | 100 | 1010.0 |
| 20260509140249 | 50 | 184 | 0.9 | 2.6 | 0.05 | 0.24 | 0.08 | 100 | 1010.1 |
| 20260509135315 | 50 | 174 | 0.9 | 2.6 | 0.05 | 0.24 | 0.08 | 100 | 1010.3 |
| 20260509134312 | 50 | 155 | 0.9 | 2.6 | 0.05 | 0.24 | 0.08 | 100 | 1010.4 |
| 20260509133305 | 50 | 156 | 0.9 | 1.7 | 0.04 | 0.23 | 0.07 | 100 | 1010.1 |
| 20260509132228 | 50 | 214 | 0.9 | 2.6 | 0.02 | 0.21 | 0.05 | 100 | 1010.2 |
| 20260509131259 | 50 | 179 | 1.7 | 2.6 | 0.01 | 0.20 | 0.04 | 100 | 1010.5 |
| 20260509130247 | 50 | 168 | 0.9 | 1.7 | 0.01 | 0.19 | 0.03 | 100 | 1010.5 |
| 20260509125229 | 50 | 238 | 0.9 | 2.6 | 0.01 | 0.19 | 0.03 | 100 | 1010.4 |
| 20260509124302 | 50 | 161 | 0.9 | 3.5 | 0.02 | 0.19 | 0.03 | 100 | 1010.3 |
| 20260509123248 | 49 | 161 | 1.7 | 2.6 | 0.02 | 0.19 | 0.03 | 100 | 1010.4 |
| 20260509122235 | 49 | 150 | 0.9 | 2.6 | 0.02 | 0.19 | 0.03 | 100 | 1010.3 |
| 20260509121243 | 49 | 155 | 0.9 | 2.6 | 0.02 | 0.19 | 0.03 | 100 | 1010.5 |
| 20260509120306 | 49 | 159 | 0.9 | 1.7 | 0.01 | 0.18 | 0.02 | 100 | 1010.1 |
| 20260509115249 | 48 | 164 | 0.9 | 1.7 | 0.01 | 0.18 | 0.02 | 100 | 1010.4 |
| 20260509114228 | 48 | 165 | 0.9 | 0.9 | 0.00 | 0.17 | 0.01 | 100 | 1010.3 |
| 20260509113312 | 48 | 170 | 0.9 | 1.7 | 0.00 | 0.17 | 0.01 | 100 | 1010.3 |
| 20260509112301 | 48 | 133 | 0.0 | 0.9 | 0.00 | 0.17 | 0.01 | 100 | 1010.3 |
| 20260509111237 | 48 | 133 | 0.0 | 0.9 | 0.00 | 0.17 | 0.01 | 100 | 1010.3 |
| 20260509110218 | 48 | 0.0 | 0.0 | 0.00 | 0.17 | 0.01 | 100 | 1010.2 | |
| 20260509105300 | 48 | 0.0 | 0.0 | 0.00 | 0.17 | 0.01 | 100 | 1010.3 | |
| 20260509104246 | 47 | 0.0 | 0.9 | 0.00 | 0.17 | 0.01 | 100 | 1010.3 | |
| 20260509103228 | 47 | 0.0 | 0.0 | 0.01 | 0.17 | 0.01 | 100 | 1010.2 | |
| 20260509102312 | 47 | 0.0 | 0.0 | 0.01 | 0.17 | 0.01 | 100 | 1010.4 | |
| 20260509101256 | 47 | 0.0 | 0.0 | 0.01 | 0.17 | 0.01 | 100 | 1010.3 | |
| 20260509100303 | 47 | 0.0 | 0.0 | 0.01 | 0.17 | 0.01 | 100 | 1010.2 | |
| 20260509095221 | 47 | 79 | 0.0 | 0.9 | 0.01 | 0.17 | 0.01 | 100 | 1010.5 |
| 20260509094305 | 47 | 0.0 | 0.0 | 0.01 | 0.17 | 0.01 | 100 | 1010.4 | |
| 20260509092230 | 47 | 0.0 | 0.0 | 0.00 | 0.16 | 0.00 | 100 | 1010.7 | |
| 20260509091337 | 47 | 0.0 | 0.0 | 0.00 | 0.16 | 0.00 | 100 | 1010.8 | |
| 20260509090335 | 47 | 0.0 | 0.0 | 0.00 | 0.16 | 0.00 | 100 | 1010.9 | |
| 20260509085237 | 47 | 0.0 | 0.0 | 0.00 | 0.16 | 0.00 | 100 | 1010.8 | |
| 20260509084311 | 47 | 0.0 | 0.0 | 0.00 | 0.16 | 0.00 | 100 | 1010.6 | |
| 20260509083257 | 47 | 0.0 | 0.0 | 0.00 | 0.16 | 0.00 | 100 | 1010.7 | |
| 20260509082228 | 47 | 0.0 | 0.0 | 0.00 | 0.16 | 0.00 | 100 | 1010.7 | |
| 20260509081309 | 47 | 0.0 | 0.0 | 0.00 | 0.16 | 0.00 | 100 | 1010.7 | |
| 20260509080305 | 47 | 0.0 | 0.0 | 0.00 | 0.16 | 0.00 | 100 | 1010.5 | |
| 20260509075216 | 47 | 0.0 | 0.0 | 0.00 | 0.16 | 0.00 | 100 | 1010.5 | |
| 20260509074306 | 47 | 0.0 | 0.0 | 0.00 | 0.16 | 0.00 | 100 | 1010.7 | |
| 20260509073253 | 47 | 0.0 | 0.0 | 0.00 | 0.16 | 0.00 | 100 | 1010.9 | |
| 20260509072236 | 47 | 0.0 | 0.0 | 0.00 | 0.16 | 0.00 | 100 | 1010.6 | |
| 20260509071225 | 47 | 0.0 | 0.0 | 0.00 | 0.16 | 0.00 | 100 | 1010.8 | |
| 20260509070308 | 47 | 0.0 | 0.0 | 0.00 | 0.16 | 0.00 | 100 | 1010.6 | |
| 20260509065241 | 47 | 0.0 | 0.0 | 0.00 | 0.16 | 0.00 | 100 | 1010.8 | |
| 20260509064223 | 47 | 0.0 | 0.0 | 0.00 | 0.16 | 0.00 | 100 | 1011.0 | |
| 20260509063302 | 47 | 0.0 | 0.0 | 0.00 | 0.16 | 0.00 | 100 | 1011.0 | |
| 20260509061229 | 48 | 0.0 | 0.0 | 0.00 | 0.16 | 0.00 | 100 | 1011.4 | |
| 20260509060336 | 48 | 0.0 | 0.0 | 0.00 | 0.16 | 0.00 | 100 | 1011.8 | |
| 20260509055315 | 48 | 0.0 | 0.9 | 0.00 | 0.16 | 0.00 | 100 | 1011.7 | |
| 20260509054227 | 48 | 0.0 | 0.0 | 0.00 | 0.16 | 0.00 | 100 | 1011.7 | |
| 20260509053216 | 48 | 0.0 | 0.0 | 0.00 | 0.16 | 0.00 | 100 | 1012.1 | |
| 20260509052253 | 48 | 0.0 | 0.0 | 0.00 | 0.16 | 0.00 | 100 | 1011.9 | |
| 20260509051226 | 48 | 0.0 | 0.0 | 0.00 | 0.16 | 0.00 | 100 | 1012.0 | |
| 20260509050310 | 48 | 0.0 | 0.0 | 0.00 | 0.16 | 0.00 | 100 | 1011.9 | |
| 20260509045307 | 48 | 0.0 | 0.0 | 0.00 | 0.16 | 0.00 | 100 | 1012.2 | |
| 20260509044226 | 48 | 0.0 | 0.0 | 0.01 | 0.16 | 0.00 | 100 | 1012.6 | |
| 20260509043316 | 48 | 0.0 | 0.0 | 0.01 | 0.16 | 0.00 | 100 | 1012.7 | |
| 20260509042307 | 48 | 0.0 | 0.0 | 0.01 | 0.16 | 0.00 | 100 | 1012.6 | |
| 20260509041231 | 48 | 0.0 | 0.0 | 0.01 | 0.16 | 0.00 | 100 | 1013.0 | |
| 20260509040308 | 48 | 0.0 | 0.0 | 0.02 | 0.16 | 0.00 | 100 | 1013.0 | |
| 20260509035245 | 48 | 0.0 | 0.0 | 0.02 | 0.16 | 0.16 | 100 | 1013.3 | |
| 20260509034217 | 48 | 0.0 | 0.0 | 0.02 | 0.15 | 0.15 | 100 | 1013.5 | |
| 20260509033306 | 48 | 0.0 | 0.0 | 0.02 | 0.15 | 0.15 | 100 | 1013.3 | |
| 20260509032313 | 48 | 0.0 | 0.0 | 0.03 | 0.15 | 0.15 | 100 | 1013.7 | |
| 20260509031237 | 48 | 0.0 | 0.0 | 0.03 | 0.15 | 0.15 | 100 | 1013.9 | |
| 20260509030308 | 48 | 0.0 | 0.0 | 0.03 | 0.14 | 0.14 | 100 | 1014.1 | |
| 20260509025253 | 49 | 0.0 | 0.0 | 0.03 | 0.14 | 0.14 | 100 | 1013.6 | |
| 20260509024237 | 48 | 0.0 | 0.9 | 0.02 | 0.13 | 0.13 | 100 | 1013.5 | |
| 20260509023314 | 48 | 0.0 | 0.0 | 0.02 | 0.13 | 0.13 | 100 | 1013.8 | |
| 20260509022321 | 48 | 0.0 | 0.0 | 0.01 | 0.12 | 0.12 | 100 | 1013.6 | |
| 20260509021245 | 48 | 0.0 | 0.0 | 0.01 | 0.12 | 0.12 | 100 | 1013.3 | |
| 20260509020231 | 48 | 0.0 | 0.0 | 0.00 | 0.11 | 0.11 | 100 | 1013.4 | |
| 20260509015317 | 48 | 0.0 | 0.0 | 0.00 | 0.11 | 0.11 | 100 | 1013.1 | |
| 20260509014316 | 49 | 0.0 | 0.0 | 0.00 | 0.11 | 0.11 | 100 | 1013.3 | |
| 20260509013246 | 49 | 0.0 | 0.0 | 0.00 | 0.11 | 0.11 | 100 | 1013.4 | |
| 20260509012246 | 48 | 0.0 | 0.0 | 0.00 | 0.11 | 0.11 | 100 | 1013.2 | |
| 20260509011329 | 48 | 0.0 | 0.0 | 0.00 | 0.11 | 0.11 | 100 | 1013.0 | |
| 20260509010303 | 48 | 0.0 | 0.0 | 0.00 | 0.11 | 0.11 | 100 | 1012.9 | |
| 20260509005229 | 48 | 0.0 | 0.9 | 0.00 | 0.11 | 0.11 | 100 | 1012.5 | |
| 20260509004337 | 49 | 0.0 | 0.0 | 0.00 | 0.11 | 0.11 | 100 | 1012.9 | |
| 20260509003258 | 49 | 0.0 | 0.0 | 0.00 | 0.11 | 0.11 | 100 | 1012.4 | |
| 20260509002245 | 49 | 0.0 | 0.0 | 0.00 | 0.11 | 0.11 | 100 | 1012.7 | |
| 20260509001227 | 49 | 0.0 | 0.0 | 0.00 | 0.11 | 0.11 | 100 | 1012.4 | |
| 20260509000318 | 49 | 0.0 | 0.0 | 0.00 | 0.11 | 0.11 | 100 | 1012.2 | |
| 20260508235306 | 49 | 0.0 | 0.0 | 0.00 | 0.11 | 0.11 | 100 | 1012.1 | |
| 20260508234246 | 50 | 0.0 | 0.0 | 0.00 | 0.11 | 0.11 | 100 | 1012.0 | |
| 20260508233251 | 50 | 0.0 | 0.0 | 0.01 | 0.11 | 0.11 | 100 | 1012.6 | |
| 20260508232218 | 50 | 0.0 | 0.0 | 0.01 | 0.11 | 0.11 | 98 | 1012.4 | |
| 20260508231301 | 50 | 0.0 | 0.0 | 0.01 | 0.11 | 0.11 | 99 | 1012.4 | |
| 20260508230306 | 50 | 0.0 | 0.0 | 0.01 | 0.11 | 0.11 | 98 | 1012.7 | |
| 20260508225227 | 50 | 0.0 | 0.0 | 0.03 | 0.11 | 0.11 | 97 | 1012.8 | |
| 20260508224331 | 50 | 0.0 | 0.0 | 0.04 | 0.11 | 0.11 | 97 | 1012.5 | |
| 20260508223318 | 50 | 0.0 | 0.0 | 0.04 | 0.10 | 0.10 | 97 | 1012.5 | |
| 20260508222245 | 50 | 0.0 | 0.9 | 0.06 | 0.10 | 0.10 | 96 | 1012.7 | |
| 20260508221229 | 50 | 267 | 0.9 | 1.7 | 0.08 | 0.10 | 0.10 | 95 | 1013.2 |
| 20260508220311 | 50 | 320 | 0.0 | 2.6 | 0.08 | 0.10 | 0.10 | 96 | 1013.0 |
| 20260508215244 | 50 | 139 | 0.0 | 1.7 | 0.06 | 0.08 | 0.08 | 98 | 1013.2 |
| 20260508214231 | 50 | 0.0 | 0.0 | 0.05 | 0.07 | 0.07 | 94 | 1012.9 | |
| 20260508213218 | 51 | 0.0 | 0.0 | 0.04 | 0.06 | 0.06 | 92 | 1013.0 | |
| 20260508212255 | 52 | 0.0 | 2.6 | 0.02 | 0.04 | 0.04 | 87 | 1012.9 | |
| 20260508211240 | 54 | 246 | 0.0 | 0.9 | 0.00 | 0.02 | 0.02 | 81 | 1012.8 |
| 20260508210304 | 54 | 208 | 0.0 | 1.7 | 0.00 | 0.02 | 0.02 | 81 | 1012.4 |
| 20260508205330 | 54 | 190 | 0.0 | 2.6 | 0.00 | 0.02 | 0.02 | 80 | 1012.6 |
| 20260508204254 | 53 | 231 | 0.9 | 2.6 | 0.00 | 0.02 | 0.02 | 79 | 1012.6 |
| 20260508203259 | 53 | 242 | 1.7 | 8.7 | 0.01 | 0.02 | 0.02 | 80 | 1012.6 |
| 20260508202221 | 53 | 224 | 0.9 | 1.7 | 0.01 | 0.02 | 0.02 | 79 | 1012.8 |
| 20260508201309 | 53 | 301 | 1.7 | 3.5 | 0.01 | 0.02 | 0.02 | 80 | 1013.1 |
| 20260508200241 | 53 | 181 | 0.9 | 2.6 | 0.01 | 0.02 | 0.02 | 81 | 1013.1 |
| 20260508195228 | 54 | 209 | 2.6 | 5.2 | 0.01 | 0.02 | 0.02 | 79 | 1013.3 |
| 20260508194337 | 55 | 231 | 0.9 | 5.2 | 0.01 | 0.02 | 0.02 | 77 | 1013.1 |
| 20260508192306 | 57 | 190 | 0.9 | 1.7 | 0.01 | 0.01 | 0.01 | 72 | 1013.1 |
| 20260508191218 | 57 | 234 | 1.7 | 2.6 | 0.01 | 0.01 | 0.01 | 72 | 1013.3 |
| 20260508190305 | 56 | 168 | 1.7 | 2.6 | 0.01 | 0.01 | 0.01 | 75 | 1013.3 |